Regional Weather Roundup
Issued by NWS Glasgow, MT

Home | Current Version | Previous Version | Text Only | Print | Product List | Glossary On
Versions: 1 2 3 4 5 6 7 8 9 10 11 12 13 14 15 16 17 18 19 20 21 22 23 24 25 26 27 28
000
ASUS45 KGGW 251715
RWRGGW
HOURLY REGIONAL WEATHER ROUNDUP FOR NORTHEAST MONTANA
NATIONAL WEATHER SERVICE GLASGOW MONTANA
1100 AM MDT TUE JUL 25 2017

NOTE: "FAIR" INDICATES FEW OR NO CLOUDS BELOW 12,000 FEET WITH NO
SIGNIFICANT WEATHER AND/OR OBSTRUCTIONS TO VISISBILITY.

NORTHEAST MONTANA


CITY           SKY/WX    TMP DP  RH WIND       PRES   REMARKS
GLASGOW        SUNNY     70  47  43 MISG      30.08F
PLENTYWOOD       N/A     71  43  36 NW18G26     N/A
WOLF POINT     SUNNY     80  43  26 NW10G17   30.05F
JORDAN           N/A     73  42  32 VRB3      30.10
WINNETT          N/A     73  36  25 N7          N/A
SIDNEY         SUNNY     76  46  34 NW14      30.03F
GLENDIVE       MOSUNNY   77  43  29 N17       30.06R
MALTA            N/A     74  44  34 W6          N/A

FORT PECK REPORTS


CITY           SKY/WX    TMP DP  RH WIND       PRES   REMARKS
FORT PECK        N/A     70  49  47 W13         N/A
THE PINES        N/A     72  43  35 NW6         N/A

SOUTHEAST MONTANA


CITY           SKY/WX    TMP DP  RH WIND       PRES   REMARKS
BILLINGS       CLOUDY    70  37  29 NE12      30.15F
MILES CITY     MOSUNNY   81  37  20 VRB6G17   30.06S
BAKER          PTSUNNY   81  37  20 NE16G22   30.06R
LIVINGSTON     CLOUDY    65  38  36 E15       30.18

CENTRAL MONTANA


CITY           SKY/WX    TMP DP  RH WIND       PRES   REMARKS
HAVRE          SUNNY     70  40  33 NW6       30.13F
LEWISTOWN      SUNNY     70  37  29 E7        30.16F
GREAT FALLS    SUNNY     67  38  34 E7        30.15F
CUT BANK       SUNNY     66  38  35 CALM      30.15F
HELENA         PTSUNNY   68  40  35 CALM      30.15F
BUTTE          PTSUNNY   69  37  30 CALM      30.17F
BOZEMAN        CLOUDY    66  49  54 N10       30.15S

WESTERN MONTANA


CITY           SKY/WX    TMP DP  RH WIND       PRES   REMARKS
MISSOULA       SUNNY     75  37  25 VRB3      30.06F
KALISPELL      NOT AVBL

NORTH DAKOTA


CITY           SKY/WX    TMP DP  RH WIND       PRES   REMARKS
WILLISTON      SUNNY     78  47  33 NW14G21   30.02S
DICKINSON      MOSUNNY   81  44  27 N14       30.00R
MINOT          SUNNY     76  50  40 W8        29.96S
BISMARCK       CLOUDY    78  55  44 N16       29.91F

SOUTHERN SASKATCHEWAN


CITY           SKY/WX    TMP DP  RH WIND       PRES   REMARKS
REGINA         MOSUNNY   70  54  56 W21G31    29.95R
MOOSE JAW      MOSUNNY   72  54  53 NW17G30   29.98S
ESTEVAN        MOSUNNY   70  54  56 W23       29.96F
SWIFT CURRENT  SUNNY     68  48  49 NW20G31   30.05F





USA.gov is the U.S. government's official web portal to all federal, state and local government web resources and services.